Regional Weather Roundup
Issued by NWS

Home | Current Version | Previous Version | Graphics & Text | Print | Product List | Glossary On
Versions: 1 2 3 4 5 6 7 8 9 10 11 12 13 14 15 16 17 18 19 20 21 22 23 24 25 26 27 28 29 30 31 32 33 34 35 36 37 38 39 40 41 42 43 44 45 46 47 48 49 50
493
ASUS43 KTOP 311259
RWRKS

WEATHER ROUNDUP FOR KANSAS
NATIONAL WEATHER SERVICE GOODLAND KS
800 AM CDT WED AUG 31 2016

NOTE:  "FAIR" INDICATES FEW OR NO CLOUDS BELOW 12,000 FEET WITH NO
SIGNIFICANT WEATHER AND/OR OBSTRUCTIONS TO VISIBILITY.

KSZ001>006-013>018-027>032-041>047-311400-
NORTHWEST KANSAS

CITY           SKY/WX    TMP DP  RH WIND       PRES   REMARKS
GOODLAND       FOG       64  63  96 S6        30.23S VSB 1
HAYS           CLOUDY    66  61  82 N3        30.18S
HILL CITY      FOG       64  63  96 N5        30.20R VSB 1/2
RUSSELL        CLOUDY    69  68  96 NE7       30.16R FOG
$$

KSZ061>065-074>080-084>089-311400-
SOUTHWEST KANSAS

CITY           SKY/WX    TMP DP  RH WIND       PRES   REMARKS
DODGE CITY     LGT RAIN  67  66  97 NE3       30.19R FOG
ELKHART          N/A     64  59  84 NE2         N/A
GARDEN CITY    FOG       65  65 100 CALM      30.20S VSB<1/4
GREAT BEND     CLOUDY    70  63  78 N7        30.17R VSB 3/4
LIBERAL        CLOUDY    66  63  88 N3        30.22R
$$

KSZ066>073-081>083-090>101-311400-
SOUTHEAST KANSAS

CITY           SKY/WX    TMP DP  RH WIND       PRES   REMARKS
CHANUTE        PTSUNNY   72  70  93 VRB3      30.10R
HUTCHINSON     FOG       72  70  93 CALM      30.14R VSB 3/4
MEDICINE LODGE   N/A     69  67  93 N5        30.13R
NEWTON         CLOUDY    69  69 100 CALM      30.15R
PARSONS        CLOUDY    71  69  93 CALM      30.10R
WICHITA INTL   CLOUDY    72  68  87 NE6       30.12R
WICHITA JABRA  CLOUDY    69  69 100 CALM      30.12R
WINFIELD       CLOUDY    71  69  93 NE5       30.11R
$$

KSZ007>012-019>026-033>040-048>060-102>105-311400-
NORTHEAST KANSAS

CITY           SKY/WX    TMP DP  RH WIND       PRES   REMARKS
CONCORDIA      CLOUDY    69  68  96 E5        30.16S FOG
EMPORIA        CLOUDY    69  68  96 N3        30.12R
LAWRENCE       CLOUDY    71  70  96 CALM      30.12R
MANHATTAN      CLOUDY    72  70  93 CALM      30.14R
OLATHE IND     CLOUDY    70  69  97 N6        30.12S
OLATHE EXE     CLOUDY    70  68  93 N5        30.12R
SALINA         LGT RAIN  72  71  97 NE9       30.14R FOG
TOPEKA BILLARD CLOUDY    70  69  97 CALM      30.12S
TOPEKA FORBES  CLOUDY    72  69  90 N5        30.12S
$$




USA.gov is the U.S. government's official web portal to all federal, state and local government web resources and services.